Satellite: FALCON
Catalog number: 30776
Epoch time:      09252.51287866
Element set:    0665
Inclination:      035.4352 deg
RA of node:       307.7728 deg
Eccentricity:    0.0001908
Arg of perigee:   303.9452 deg
Mean anomaly:     056.1083 deg
Mean motion:   15.03297769 rev/day
Decay rate:       2.28e-06 rev/day^2
Epoch rev:           13779
Checksum:              321

Satellite: MAST
Catalog number: 31126
Epoch time:      09252.70771229
Element set:     681
Inclination:      097.9803 deg
RA of node:       303.6067 deg
Eccentricity:    0.0095180
Arg of perigee:   018.1387 deg
Mean anomaly:     342.3174 deg
Mean motion:   14.53515591 rev/day
Decay rate:        8.3e-07 rev/day^2
Epoch rev:           12731
Checksum:              291

Satellite: CAPE1
Catalog number: 31130
Epoch time:      09253.58790488
Element set:     691
Inclination:      097.9809 deg
RA of node:       302.4404 deg
Eccentricity:    0.0103381
Arg of perigee:   021.5204 deg
Mean anomaly:     339.0295 deg
Mean motion:   14.52085147 rev/day
Decay rate:       1.82e-06 rev/day^2
Epoch rev:           12708
Checksum:              288

Satellite: COMPASS
Catalog number: 32787
Epoch time:      09253.66778606
Element set:     459
Inclination:      097.9351 deg
RA of node:       316.7364 deg
Eccentricity:    0.0017042
Arg of perigee:   113.7974 deg
Mean anomaly:     246.5030 deg
Mean motion:   14.81650849 rev/day
Decay rate:        7.5e-07 rev/day^2
Epoch rev:            7410
Checksum:              320

Satellite: AAUSAT2
Catalog number: 32788
Epoch time:      09253.83110579
Element set:     455
Inclination:      097.9351 deg
RA of node:       316.9711 deg
Eccentricity:    0.0016706
Arg of perigee:   112.5628 deg
Mean anomaly:     247.7316 deg
Mean motion:   14.81777365 rev/day
Decay rate:       3.06e-06 rev/day^2
Epoch rev:            7413
Checksum:              316

Satellite: DO-64
Catalog number: 32789
Epoch time:      09252.83998116
Element set:     469
Inclination:      097.9393 deg
RA of node:       316.2070 deg
Eccentricity:    0.0016894
Arg of perigee:   115.3819 deg
Mean anomaly:     244.9132 deg
Mean motion:   14.81784742 rev/day
Decay rate:       2.66e-06 rev/day^2
Epoch rev:            7398
Checksum:              358

Satellite: CO-66
Catalog number: 32791
Epoch time:      09251.69438811
Element set:    0456
Inclination:      097.9371 deg
RA of node:       314.8144 deg
Eccentricity:    0.0017126
Arg of perigee:   116.8146 deg
Mean anomaly:     243.4815 deg
Mean motion:   14.81475191 rev/day
Decay rate:       3.46e-06 rev/day^2
Epoch rev:           07377
Checksum:              326

Satellite: RS-30
Catalog number: 32953
Epoch time:      09253.34775993
Element set:     401
Inclination:      082.5015 deg
RA of node:       203.6545 deg
Eccentricity:    0.0019735
Arg of perigee:   357.5593 deg
Mean anomaly:     002.5388 deg
Mean motion:   12.43003026 rev/day
Decay rate:        1.0e-07 rev/day^2
Epoch rev:            5897
Checksum:              292

Satellite: TACSAT-3
Catalog number: 35001
Epoch time:      09253.67270437
Element set:      93
Inclination:      040.4553 deg
RA of node:       089.3388 deg
Eccentricity:    0.0023200
Arg of perigee:   075.2496 deg
Mean anomaly:     285.0900 deg
Mean motion:   15.39125688 rev/day
Decay rate:      1.381e-05 rev/day^2
Epoch rev:            1752
Checksum:              288

Satellite: PHARMSAT
Catalog number: 35002
Epoch time:      09253.94039153
Element set:      91
Inclination:      040.4679 deg
RA of node:       087.0735 deg
Eccentricity:    0.0025832
Arg of perigee:   081.7510 deg
Mean anomaly:     278.6232 deg
Mean motion:   15.39883379 rev/day
Decay rate:      1.390e-05 rev/day^2
Epoch rev:            1756
Checksum:              301

Satellite: HAWKSAT1
Catalog number: 35003
Epoch time:      09253.64222498
Element set:      95
Inclination:      040.4602 deg
RA of node:       088.2368 deg
Eccentricity:    0.0025716
Arg of perigee:   083.3049 deg
Mean anomaly:     277.0667 deg
Mean motion:   15.40576210 rev/day
Decay rate:      2.799e-05 rev/day^2
Epoch rev:            1753
Checksum:              298

Satellite: CP6
Catalog number: 35004
Epoch time:      09253.64140784
Element set:      89
Inclination:      040.4616 deg
RA of node:       088.2352 deg
Eccentricity:    0.0025812
Arg of perigee:   083.0532 deg
Mean anomaly:     277.3191 deg
Mean motion:   15.40628992 rev/day
Decay rate:      3.286e-05 rev/day^2
Epoch rev:            1752
Checksum:              294

Satellite: AEROCUB3
Catalog number: 35005
Epoch time:      09253.65503492
Element set:      89
Inclination:      040.4740 deg
RA of node:       088.4766 deg
Eccentricity:    0.0025317
Arg of perigee:   081.5510 deg
Mean anomaly:     278.8156 deg
Mean motion:   15.40427719 rev/day
Decay rate:      3.213e-05 rev/day^2
Epoch rev:            1752
Checksum:              291

Satellite: DRAGNSAT
Catalog number: 35690
Epoch time:      09253.99643289
Element set:      40
Inclination:      051.6422 deg
RA of node:       223.8550 deg
Eccentricity:    0.0002346
Arg of perigee:   213.9695 deg
Mean anomaly:     146.1148 deg
Mean motion:   15.82088376 rev/day
Decay rate:     1.7891e-04 rev/day^2
Epoch rev:             672
Checksum:              312

